Location: Étouvelles
(49.5207°N, 3.5808°E)
Time: 01:09:40
(UTC+00:00)

Cosmos 540 Rocket - Pass Details

Date: 24 September 2023
Orbit: 737 x 752 km, 74.1° (Epoch: 03 December)

Event Time Altitude Azimuth Distance (km) Brightness Sun altitude
Rises 21:52:19 0° 337° (NNW) 3,184 7.7 -36.2°
Reaches altitude 10° 21:54:42 10° 340° (NNW) 2,257 6.7 -36.4°
Enters shadow 21:56:47 25° 344° (NNW) 1,477 5.4 -36.6°
